Time,TemperatureF,DewpointF,PressureIn,WindDirection,WindDirectionDegrees,WindSpeedMPH,WindSpeedGustMPH,Humidity,HourlyPrecipIn,Conditions,Clouds,dailyrainin,SolarRadiationWatts/m^2,SoftwareType,DateUTC
2013-01-03 00:02:00,-6.0,-10.0,30.37,SSE,161,8.0,12.0,81,-99.99,,,-99.99,0.000000,,2013-01-03 08:02:00,
2013-01-03 00:12:00,-6.0,-10.0,-100.00,SSE,161,8.0,12.0,81,-99.99,,,-99.99,0.000000,,2013-01-03 08:12:00,
2013-01-03 00:22:00,-6.0,-10.0,30.36,SSE,158,8.0,12.0,81,-99.99,,,-99.99,0.000000,,2013-01-03 08:22:00,
2013-01-03 00:32:00,-7.0,-11.0,30.35,SSE,153,9.0,13.0,82,-99.99,,,-99.99,0.000000,,2013-01-03 08:32:00,
2013-01-03 00:42:00,-6.0,-11.0,30.35,SSE,164,8.0,12.0,81,-99.99,,,-99.99,0.000000,,2013-01-03 08:42:00,
2013-01-03 00:52:00,-7.0,-11.0,30.35,SSE,150,9.0,13.0,81,-99.99,,,-99.99,0.000000,,2013-01-03 08:52:00,
2013-01-03 01:02:00,-6.0,-10.0,30.35,SSE,148,11.0,14.0,83,-99.99,,,-99.99,0.000000,,2013-01-03 09:02:00,
2013-01-03 01:12:00,-6.0,-9.0,30.35,SE,145,11.0,14.0,83,-99.99,,,-99.99,0.000000,,2013-01-03 09:12:00,
2013-01-03 01:22:00,-7.0,-11.0,30.35,SE,146,8.0,11.0,82,-99.99,,,-99.99,0.000000,,2013-01-03 09:22:00,
2013-01-03 01:33:00,-8.0,-12.0,30.36,SE,145,7.0,10.0,81,-99.99,,,-99.99,0.000000,,2013-01-03 09:33:00,
2013-01-03 01:52:00,-8.0,-12.0,30.36,SSE,148,8.0,13.0,80,-99.99,,,-99.99,0.000000,,2013-01-03 09:52:00,
2013-01-03 02:02:00,-9.0,-13.0,30.37,SE,145,9.0,12.0,80,-99.99,,,-99.99,0.000000,,2013-01-03 10:02:00,
2013-01-03 02:12:00,-7.0,-11.0,30.36,SE,143,12.0,15.0,82,-99.99,,,-99.99,0.000000,,2013-01-03 10:12:00,
2013-01-03 02:22:00,-6.0,-10.0,30.36,SE,145,12.0,16.0,82,-99.99,,,-99.99,0.000000,,2013-01-03 10:22:00,
2013-01-03 02:32:00,-6.0,-10.0,30.36,SE,145,12.0,16.0,82,-99.99,,,-99.99,0.000000,,2013-01-03 10:32:00,
2013-01-03 02:42:00,-7.0,-11.0,30.37,SSE,147,9.0,12.0,81,-99.99,,,-99.99,0.000000,,2013-01-03 10:42:00,
2013-01-03 02:52:00,-9.0,-13.0,30.37,SSE,150,10.0,13.0,80,-99.99,,,-99.99,0.000000,,2013-01-03 10:52:00,
2013-01-03 03:02:00,-8.0,-12.0,30.36,SSE,147,11.0,14.0,82,-99.99,,,-99.99,0.000000,,2013-01-03 11:02:00,
2013-01-03 03:12:00,-8.0,-12.0,30.36,SSE,153,9.0,14.0,82,-99.99,,,-99.99,0.000000,,2013-01-03 11:12:00,
2013-01-03 03:22:00,-9.0,-13.0,30.36,SSE,150,10.0,14.0,81,-99.99,,,-99.99,0.000000,,2013-01-03 11:22:00,
2013-01-03 03:33:00,-9.0,-13.0,30.36,SSE,150,10.0,14.0,81,-99.99,,,-99.99,0.000000,,2013-01-03 11:33:00,
2013-01-03 03:42:00,-8.0,-12.0,30.36,SSE,149,10.0,16.0,82,-99.99,,,-99.99,0.000000,,2013-01-03 11:42:00,
2013-01-03 03:52:00,-8.0,-12.0,30.36,SSE,149,10.0,16.0,82,-99.99,,,-99.99,0.000000,,2013-01-03 11:52:00,
2013-01-03 04:02:00,-8.0,-12.0,30.36,SSE,148,11.0,16.0,82,-99.99,,,-99.99,0.000000,,2013-01-03 12:02:00,
2013-01-03 04:10:00,-8.0,-12.0,-100.00,SE,144,13.0,15.0,83,-99.99,,,-99.99,0.000000,,2013-01-03 12:10:00,
2013-01-03 04:12:00,-9.0,-13.0,30.34,SSE,152,10.0,13.0,81,-99.99,,,-99.99,0.000000,,2013-01-03 12:12:00,
2013-01-03 04:22:00,-9.0,-14.0,30.34,SE,146,9.0,12.0,81,-99.99,,,-99.99,0.000000,,2013-01-03 12:22:00,
2013-01-03 04:32:00,-9.0,-14.0,30.34,SE,146,9.0,12.0,81,-99.99,,,-99.99,0.000000,,2013-01-03 12:32:00,
2013-01-03 04:42:00,-10.0,-14.0,30.33,SSE,147,11.0,15.0,82,-99.99,,,-99.99,0.000000,,2013-01-03 12:42:00,
2013-01-03 04:52:00,-8.0,-12.0,30.33,SE,144,13.0,15.0,83,-99.99,,,-99.99,0.000000,,2013-01-03 12:52:00,
2013-01-03 05:02:00,-8.0,-12.0,30.33,SE,144,13.0,15.0,83,-99.99,,,-99.99,0.000000,,2013-01-03 13:02:00,
2013-01-03 05:22:00,-10.0,-14.0,30.33,SE,145,12.0,15.0,82,-99.99,,,-99.99,0.000000,,2013-01-03 13:22:00,
2013-01-03 05:32:00,-9.0,-13.0,30.33,SE,143,11.0,14.0,82,-99.99,,,-99.99,0.000000,,2013-01-03 13:32:00,
2013-01-03 05:42:00,-9.0,-13.0,30.34,SE,144,9.0,12.0,82,-99.99,,,-99.99,0.000000,,2013-01-03 13:42:00,
2013-01-03 05:52:00,-9.0,-13.0,30.34,SE,144,9.0,12.0,82,-99.99,,,-99.99,0.000000,,2013-01-03 13:52:00,
2013-01-03 06:02:00,-9.0,-13.0,30.33,SSE,150,10.0,13.0,82,-99.99,,,-99.99,0.000000,,2013-01-03 14:02:00,
2013-01-03 06:12:00,-9.0,-13.0,30.34,SSE,151,14.0,17.0,82,-99.99,,,-99.99,0.000000,,2013-01-03 14:12:00,
2013-01-03 06:22:00,-8.0,-12.0,30.34,SSE,149,13.0,18.0,83,-99.99,,,-99.99,0.000000,,2013-01-03 14:22:00,
2013-01-03 06:32:00,-8.0,-12.0,30.34,SSE,149,13.0,18.0,83,-99.99,,,-99.99,0.000000,,2013-01-03 14:32:00,
2013-01-03 06:42:00,-9.0,-12.0,30.35,SE,142,13.0,18.0,82,-99.99,,,-99.99,0.000000,,2013-01-03 14:42:00,
2013-01-03 06:53:00,-7.0,-10.0,30.35,SSE,152,11.0,16.0,83,-99.99,,,-99.99,0.000000,,2013-01-03 14:53:00,
2013-01-03 07:02:00,-6.0,-10.0,30.35,SSE,162,11.0,17.0,83,-99.99,,,-99.99,0.000000,,2013-01-03 15:02:00,
2013-01-03 07:12:00,-6.0,-10.0,-100.00,SSE,162,11.0,17.0,83,-99.99,,,-99.99,0.000000,,2013-01-03 15:12:00,
2013-01-03 07:22:00,-7.0,-11.0,30.35,SSE,155,8.0,11.0,82,-99.99,,,-99.99,0.000000,,2013-01-03 15:22:00,
2013-01-03 07:33:00,-9.0,-14.0,30.35,SE,144,11.0,13.0,80,-99.99,,,-99.99,1.000000,,2013-01-03 15:33:00,
2013-01-03 07:42:00,-9.0,-14.0,30.35,SE,144,11.0,14.0,81,-99.99,,,-99.99,7.000000,,2013-01-03 15:42:00,
2013-01-03 07:53:00,-9.0,-14.0,30.35,SE,146,11.0,13.0,81,-99.99,,,-99.99,8.000000,,2013-01-03 15:53:00,
2013-01-03 08:03:00,-9.0,-13.0,30.35,SE,142,12.0,15.0,81,-99.99,,,-99.99,16.000000,,2013-01-03 16:03:00,
2013-01-03 08:12:00,-9.0,-14.0,30.35,SE,141,12.0,15.0,81,-99.99,,,-99.99,20.000000,,2013-01-03 16:12:00,
2013-01-03 08:22:00,-8.0,-12.0,30.35,SE,146,9.0,12.0,81,-99.99,,,-99.99,30.000000,,2013-01-03 16:22:00,
2013-01-03 08:33:00,-7.0,-11.0,30.36,SSE,152,9.0,11.0,81,-99.99,,,-99.99,51.000000,,2013-01-03 16:33:00,
2013-01-03 08:43:00,-7.0,-12.0,30.36,SSE,154,9.0,13.0,80,-99.99,,,-99.99,186.000000,,2013-01-03 16:43:00,
2013-01-03 08:52:00,-6.0,-10.0,30.36,SSE,149,10.0,13.0,81,-99.99,,,-99.99,213.000000,,2013-01-03 16:52:00,
2013-01-03 09:03:00,-5.0,-9.0,30.37,SSE,148,10.0,13.0,80,-99.99,,,-99.99,207.000000,,2013-01-03 17:03:00,
2013-01-03 09:12:00,-3.0,-8.0,30.37,SSE,152,10.0,13.0,80,-99.99,,,-99.99,240.000000,,2013-01-03 17:12:00,
2013-01-03 09:22:00,-1.0,-7.0,30.37,SSE,148,8.0,11.0,78,-99.99,,,-99.99,271.000000,,2013-01-03 17:22:00,
2013-01-03 09:33:00,-1.0,-7.0,30.37,SSE,148,8.0,11.0,78,-99.99,,,-99.99,271.000000,,2013-01-03 17:33:00,
2013-01-03 09:42:00,2.0,-4.0,30.38,SE,144,9.0,12.0,76,-99.99,,,-99.99,287.000000,,2013-01-03 17:42:00,
2013-01-03 09:52:00,2.0,-4.0,30.38,SE,142,9.0,12.0,75,-99.99,,,-99.99,299.000000,,2013-01-03 17:52:00,
2013-01-03 10:03:00,2.0,-4.0,30.38,SE,142,9.0,12.0,75,-99.99,,,-99.99,299.000000,,2013-01-03 18:03:00,
2013-01-03 10:12:00,3.0,-3.0,30.38,SE,142,9.0,11.0,74,-99.99,,,-99.99,331.000000,,2013-01-03 18:12:00,
2013-01-03 10:22:00,3.0,-3.0,30.38,SE,142,9.0,11.0,74,-99.99,,,-99.99,331.000000,,2013-01-03 18:22:00,
2013-01-03 10:33:00,6.0,-1.0,30.38,SSE,156,8.0,10.0,70,-99.99,,,-99.99,387.000000,,2013-01-03 18:33:00,
2013-01-03 10:42:00,7.0,-1.0,30.38,SSE,154,9.0,11.0,69,-99.99,,,-99.99,418.000000,,2013-01-03 18:42:00,
2013-01-03 10:53:00,7.0,-1.0,30.38,SSE,154,9.0,11.0,69,-99.99,,,-99.99,418.000000,,2013-01-03 18:53:00,
2013-01-03 11:03:00,9.0,0.0,30.37,SE,146,8.0,12.0,68,-99.99,,,-99.99,411.000000,,2013-01-03 19:03:00,
2013-01-03 11:12:00,11.0,2.0,30.37,SE,140,9.0,11.0,66,-99.99,,,-99.99,447.000000,,2013-01-03 19:12:00,
2013-01-03 11:50:00,22.0,7.0,30.33,SE,142,5.0,6.0,52,-99.99,,,-99.99,545.000000,,2013-01-03 19:50:00,
2013-01-03 11:55:00,16.0,5.0,30.35,SSE,155,6.0,9.0,60,-99.99,,,-99.99,533.000000,,2013-01-03 19:55:00,
2013-01-03 12:02:00,16.0,5.0,30.35,SSE,155,6.0,9.0,60,-99.99,,,-99.99,533.000000,,2013-01-03 20:02:00,
2013-01-03 12:12:00,19.0,6.0,30.33,SE,144,4.0,6.0,56,-99.99,,,-99.99,534.000000,,2013-01-03 20:12:00,
2013-01-03 12:22:00,21.0,7.0,30.33,SE,134,5.0,6.0,54,-99.99,,,-99.99,557.000000,,2013-01-03 20:22:00,
2013-01-03 12:33:00,21.0,7.0,30.33,SE,134,5.0,6.0,54,-99.99,,,-99.99,557.000000,,2013-01-03 20:33:00,
2013-01-03 12:42:00,22.0,7.0,30.33,SE,142,5.0,6.0,52,-99.99,,,-99.99,545.000000,,2013-01-03 20:42:00,
2013-01-03 13:22:00,24.0,5.0,30.33,SE,141,7.0,8.0,45,-99.99,,,-99.99,526.000000,,2013-01-03 21:22:00,
2013-01-03 13:30:00,31.0,4.0,30.31,ESE,122,0.0,2.0,31,-99.99,,,-99.99,462.000000,,2013-01-03 21:30:00,
2013-01-03 13:35:00,25.0,5.0,30.32,SE,139,5.0,6.0,42,-99.99,,,-99.99,518.000000,,2013-01-03 21:35:00,
2013-01-03 13:46:00,27.0,6.0,30.32,SE,128,3.0,4.0,39,-99.99,,,-99.99,506.000000,,2013-01-03 21:46:00,
2013-01-03 13:52:00,27.0,6.0,30.32,SE,128,3.0,4.0,39,-99.99,,,-99.99,506.000000,,2013-01-03 21:52:00,
2013-01-03 14:02:00,29.0,6.0,30.31,SE,128,2.0,3.0,37,-99.99,,,-99.99,492.000000,,2013-01-03 22:02:00,
2013-01-03 14:12:00,29.0,5.0,30.32,ESE,123,2.0,4.0,35,-99.99,,,-99.99,477.000000,,2013-01-03 22:12:00,
2013-01-03 14:22:00,31.0,4.0,30.31,ESE,122,0.0,2.0,31,-99.99,,,-99.99,462.000000,,2013-01-03 22:22:00,
2013-01-03 15:02:00,29.0,6.0,30.31,West,272,0.0,2.0,37,-99.99,,,-99.99,383.000000,,2013-01-03 23:02:00,
2013-01-03 15:12:00,32.0,3.0,30.31,WSW,242,0.0,0.0,29,-99.99,,,-99.99,340.000000,,2013-01-03 23:12:00,
2013-01-03 15:22:00,29.0,3.0,30.31,WNW,294,0.0,1.0,31,-99.99,,,-99.99,280.000000,,2013-01-03 23:22:00,
2013-01-03 15:32:00,29.0,3.0,30.31,WNW,294,0.0,1.0,31,-99.99,,,-99.99,280.000000,,2013-01-03 23:32:00,
2013-01-03 15:42:00,29.0,4.0,30.30,NW,311,0.0,1.0,34,-99.99,,,-99.99,258.000000,,2013-01-03 23:42:00,
2013-01-03 15:52:00,30.0,4.0,30.30,NW,312,0.0,1.0,33,-99.99,,,-99.99,223.000000,,2013-01-03 23:52:00,
2013-01-03 16:03:00,30.0,4.0,30.30,NW,312,0.0,1.0,33,-99.99,,,-99.99,223.000000,,2013-01-04 00:03:00,
2013-01-03 16:12:00,29.0,4.0,30.30,NW,307,0.0,1.0,33,-99.99,,,-99.99,164.000000,,2013-01-04 00:12:00,
2013-01-03 16:22:00,29.0,5.0,30.30,NW,320,1.0,3.0,36,-99.99,,,-99.99,132.000000,,2013-01-04 00:22:00,
2013-01-03 16:32:00,29.0,5.0,30.30,NW,320,1.0,3.0,36,-99.99,,,-99.99,132.000000,,2013-01-04 00:32:00,
2013-01-03 16:42:00,27.0,8.0,30.31,North,10,1.0,3.0,44,-99.99,,,-99.99,66.000000,,2013-01-04 00:42:00,
2013-01-03 16:52:00,24.0,9.0,30.31,NNE,24,1.0,2.0,51,-99.99,,,-99.99,19.000000,,2013-01-04 00:52:00,
2013-01-03 17:02:00,24.0,9.0,30.31,NNE,24,1.0,2.0,51,-99.99,,,-99.99,19.000000,,2013-01-04 01:02:00,
2013-01-03 17:12:00,21.0,8.0,30.31,SSE,158,1.0,4.0,58,-99.99,,,-99.99,7.000000,,2013-01-04 01:12:00,
2013-01-03 17:22:00,20.0,7.0,30.31,SSE,163,4.0,7.0,57,-99.99,,,-99.99,7.000000,,2013-01-04 01:22:00,
2013-01-03 17:30:00,9.0,2.0,30.32,SE,142,10.0,12.0,72,-99.99,,,-99.99,0.000000,,2013-01-04 01:30:00,
2013-01-03 17:32:00,20.0,7.0,30.31,SSE,163,4.0,7.0,57,-99.99,,,-99.99,7.000000,,2013-01-04 01:32:00,
2013-01-03 17:42:00,11.0,3.0,30.31,SE,130,5.0,6.0,68,-99.99,,,-99.99,0.000000,,2013-01-04 01:42:00,
2013-01-03 17:52:00,11.0,3.0,30.31,SE,130,5.0,6.0,68,-99.99,,,-99.99,0.000000,,2013-01-04 01:52:00,
2013-01-03 18:02:00,9.0,2.0,30.32,SE,143,6.0,8.0,71,-99.99,,,-99.99,0.000000,,2013-01-04 02:02:00,
2013-01-03 18:12:00,9.0,2.0,30.32,SSE,148,7.0,9.0,72,-99.99,,,-99.99,0.000000,,2013-01-04 02:12:00,
2013-01-03 18:22:00,9.0,2.0,30.32,SE,142,10.0,12.0,72,-99.99,,,-99.99,0.000000,,2013-01-04 02:22:00,
2013-01-03 22:12:00,-2.0,-9.0,30.36,SSE,149,8.0,10.0,73,-99.99,,,-99.99,0.000000,,2013-01-04 06:12:00,
2013-01-03 22:22:00,-3.0,-9.0,30.36,SSE,148,8.0,10.0,74,-99.99,,,-99.99,0.000000,,2013-01-04 06:22:00,
2013-01-03 22:32:00,-3.0,-9.0,30.36,SE,146,9.0,11.0,75,-99.99,,,-99.99,0.000000,,2013-01-04 06:32:00,
2013-01-03 22:42:00,-4.0,-9.0,30.36,SE,146,7.0,10.0,76,-99.99,,,-99.99,0.000000,,2013-01-04 06:42:00,
2013-01-03 22:52:00,-3.0,-9.0,30.36,SSE,148,9.0,12.0,75,-99.99,,,-99.99,0.000000,,2013-01-04 06:52:00,
2013-01-03 23:02:00,-3.0,-10.0,30.36,SE,146,8.0,11.0,74,-99.99,,,-99.99,0.000000,,2013-01-04 07:02:00,
2013-01-03 23:12:00,-4.0,-10.0,30.36,SE,146,10.0,12.0,74,-99.99,,,-99.99,0.000000,,2013-01-04 07:12:00,
2013-01-03 23:22:00,-3.0,-9.0,30.37,SSE,147,11.0,13.0,74,-99.99,,,-99.99,0.000000,,2013-01-04 07:22:00,
2013-01-03 23:32:00,-4.0,-10.0,30.37,SSE,150,11.0,13.0,73,-99.99,,,-99.99,0.000000,,2013-01-04 07:32:00,
2013-01-03 23:42:00,-4.0,-10.0,30.37,SSE,148,12.0,14.0,74,-99.99,,,-99.99,0.000000,,2013-01-04 07:42:00,
2013-01-03 23:52:00,-4.0,-10.0,30.36,SE,145,10.0,13.0,73,-99.99,,,-99.99,0.000000,,2013-01-04 07:52:00,